O3B MPOWER F8

导读

O3b MPOWER F8卫星是卢森堡通信公司SES旗下O3b mPOWER第二代中轨通信星座的第八颗卫星,于2024年12月17日由SpaceX猎鹰9号火箭从美国肯尼迪航天中心发射。该卫星由波音公司基于702X平台研制,采用重新设计的功率模块,解决此前电力问题,运行在8000公里高度的中地球轨道,可提供低延迟、高吞吐量通信服务,为全球多个领域客户提供灵活带宽支持。

基本信息
目录编号:
62363
目录名称:
O3B MPOWER F8
国际标识:
2024-244B
轨道中心:
EARTH
卫星名称:
O3B MPOWER F8
卫星全名:
O3B MPOWER F8
卫星状态:
在轨 (已飞行587 天)
发射日期:
2024-12-17 UTC
国别 :
(SES)
星等 :
--
轨道信息
数据来源 国际轨道数据 AOE轨道数据
星历时间 2026-07-27T18:05:30+0800
11小时前
查看轨道信息
2026-07-26T13:00:00+0800
1天前
查看轨道信息
半长轴 14444.037km 14444.033km
偏心率 0.0005636 0.0005679
轨道倾角 0.016° 0.016°
近地点辐角 97.676° 96.223°
升交点赤经 16.896° 16.470°
平近点角 245.485° 224.293°
近地点 8057.759km 8057.693km
远地点 8074.041km 8074.099km
周期 287.934分钟 287.934分钟
每日圈数 5.00115 5.001152
详细信息
使用方式:
暂无
2D轨道图
3D轨道图
轨道高度分析图
轨道倾角分析图
轨道综合分析图
查看轨道综合分析图